Regional Weather Roundup
Issued by NWS

Home | Current Version | Previous Version | Text Only | Print | Product List | Glossary Off
Versions: 1 2 3 4 5 6 7 8 9 10 11 12 13 14 15 16 17 18 19 20 21 22 23 24 25 26 27 28 29 30 31 32 33 34 35 36 37 38 39 40 41 42 43 44 45 46 47 48 49 50

000
ASUS43 KBIS 262302
RWRND

NORTH DAKOTA REGIONAL WEATHER ROUNDUP
NATIONAL WEATHER SERVICE BISMARCK ND
600 PM CDT WED JUL 26 2017

NOTE: "FAIR" INDICATES FEW OR NO CLOUDS BELOW 12,000 FEET WITH NO
SIGNIFICANT WEATHER AND/OR OBSTRUCTIONS TO VISIBILITY.


NDZ001>003-009>011-017-270000-
NORTHWEST NORTH DAKOTA

CITY           SKY/WX    TMP DP  RH WIND       PRES   REMARKS
WILLISTON      SUNNY     90  47  22 S6        30.07F
MINOT          SUNNY     84  51  31 N7        30.10F
MINOT AFB      SUNNY     82  49  31 N6        30.09F
$$

NDZ018>021-031>035-040>046-270000-
SOUTHWEST NORTH DAKOTA

CITY           SKY/WX    TMP DP  RH WIND       PRES   REMARKS
BISMARCK       SUNNY     86  48  26 N13       30.09S
DICKINSON      MOSUNNY   88  51  28 E9        30.08F
GARRISON         N/A     84  50  30 N8        30.11S
HETTINGER ARPT CLOUDY    89  49  25 SE10      30.12S
$$

NDZ004>008-012>016-024-026-027-054-270000-
NORTHEAST NORTH DAKOTA

CITY           SKY/WX    TMP DP  RH WIND       PRES   REMARKS
GRAND FORKS    MOSUNNY   82  60  47 NW10      30.05S
GRND FRKS AFB  SUNNY     81  58  46 N13       30.07S
DEVILS LAKE    MOSUNNY   78  57  48 NE9       30.11S
$$

NDZ022-023-025-028>030-036>039-047>053-270000-
SOUTHEAST NORTH DAKOTA

CITY           SKY/WX    TMP DP  RH WIND       PRES   REMARKS
FARGO          MOSUNNY   81  60  48 N14       30.04S
JAMESTOWN      MOSUNNY   81  54  39 N13       30.09S
$$





USA.gov is the U.S. government's official web portal to all federal, state and local government web resources and services.